Location: Newark
(23.1300°N, 73.6109°E)
Time: 01:06:56
(UTC+00:00)

Envisat - Pass Details

Date: 29 July 2021
Orbit: 764 x 766 km, 98.2° (Epoch: 28 September)

Event Time Altitude Azimuth Distance (km) Brightness Sun altitude
Rises 23:59:53 0° 16° (NNE) 3,229 6.9 -8.3°
Reaches altitude 10° 00:02:13 10° 19° (NNE) 2,301 6.2 -7.8°
Maximum altitude 00:07:15 65° 101° (E) 839 3.5 -6.7°
Drops below altitude 10° 00:12:15 10° 183° (S) 2,292 5.2 -5.7°
Sets 00:14:34 0° 186° (S) 3,215 5.9 -5.2°
